Location: Asheville, NC
(35.6000°N, 82.5500°W)
Time: 20:46:38
(UTC-04:00)

DELFI C3 - Visible Passes

Search period start: 17 July 2018 00:00
Search period end: 27 July 2018 00:00
Orbit: 539 x 556 km, 97.5° (Epoch: 17 July)

Date Brightness Start Highest point End Pass type
(mag) Time Alt. Az. Time Alt. Az. Time Alt. Az.
17 Jul ? 21:50:35 18° SE 21:53:11 42° ENE 21:56:58 10° N visible
17 Jul ? 23:26:44 10° WSW 23:28:03 11° W 23:29:23 10° WNW visible
18 Jul ? 21:45:38 17° SE 21:48:16 36° ENE 21:51:56 10° N visible
18 Jul ? 23:21:19 10° WSW 23:23:05 13° W 23:25:01 10° WNW visible
19 Jul ? 21:40:41 15° SE 21:43:22 32° ENE 21:46:55 10° N visible
19 Jul ? 23:16:22 12° WSW 23:18:06 15° W 23:20:28 10° WNW visible
20 Jul ? 21:35:45 14° SE 21:38:28 28° ENE 21:41:51 10° NNE visible
20 Jul ? 23:11:26 14° SW 23:13:08 17° W 23:15:49 10° NW visible
21 Jul ? 21:30:49 13° ESE 21:33:33 24° ENE 21:36:47 10° NNE visible
21 Jul ? 23:06:29 16° SW 23:08:10 20° W 23:11:07 10° NW visible
22 Jul ? 21:25:51 11° ESE 21:28:38 21° ENE 21:31:41 10° NNE visible
22 Jul ? 23:01:31 17° SW 23:03:12 23° W 23:06:22 10° NW visible
23 Jul ? 21:20:56 10° ESE 21:23:44 19° ENE 21:26:33 10° NNE visible
23 Jul ? 22:56:35 20° SW 22:58:14 26° W 23:01:35 10° NW visible
24 Jul ? 21:16:18 10° ESE 21:18:50 17° ENE 21:21:22 10° NNE visible
24 Jul ? 22:51:38 22° SW 22:53:16 30° W 22:56:46 10° NW visible
25 Jul ? 21:11:44 10° ESE 21:13:56 15° ENE 21:16:08 10° NE visible
25 Jul ? 22:46:41 24° SW 22:48:18 34° W 22:51:56 10° NNW visible
26 Jul ? 21:07:16 10° E 21:09:02 13° ENE 21:10:49 10° NE visible
26 Jul ? 22:41:44 27° SSW 22:43:20 40° W 22:47:04 10° NNW visible
